Weather History for Middletown, OH

Change the Weather History Date:

Tuesday, January 7, 2014

  Actual Average (KDAY) Record (KDAY)
Temperature  
Mean Temperature 4 °F 27 °F  
Max Temperature 12 °F 35 °F 65 °F (1907)
Min Temperature -5 °F 20 °F -12 °F (1884)
Degree Days  
Heating Degree Days 62 38  
Month to date heating degree days 260  
Since 1 July heating degree days 2419  
Cooling Degree Days 0 0  
Month to date cooling degree days 0  
Year to date cooling degree days 0  
Moisture  
Dew Point -9 °F    
Average Humidity 56    
Maximum Humidity 65    
Minimum Humidity 45    
Precipitation  
Precipitation 0.00 in 0.09 in 1.67 in (1998)
Month to date precipitation 0.68  
Year to date precipitation 0.68  
Snow  
Snow 0.00 in 0.30 in 8.40 in (1979)
Month to date snowfall 1.7  
Since 1 July snowfall 7.2  
Snow Depth -    
Sea Level Pressure  
Sea Level Pressure 30.42 in    
Wind  
Wind Speed 13 mph (SW)    
Max Wind Speed 18 mph    
Max Gust Speed 24 mph    
Visibility 10 miles    
Events      
T = Trace of Precipitation, MM = Missing Value Source: NWS Daily Summary

Daily Weather History Graph

Daily Weather History Graph

Search for Another Location

Airport:

Trip Planner

Search our weather history database for the weather conditions in past years. The results will help you decide how hot, cold, wet, or windy it might be!

Date:

Astronomy

Jan. 07, 2014 Rise Set
Actual Time 7:58 AM EST 5:29 PM EST
Civil Twilight 7:28 AM EST 5:59 PM EST
Nautical Twilight 6:54 AM EST 6:33 PM EST
Astronomical Twilight 6:22 AM EST 7:05 PM EST
Moon 11:48 AM EST (1/7) No Moon Set
Length of Visible Light 10h 31m
Length of Day
9h 31m
Waxing Crescent, 45% of the Moon is Illuminated
Jan 7
Waxing Crescent
Jan 7
First Quarter
Jan 15
Full
Jan 24
Last Quarter
Jan 30
New

Hourly Weather History & Observations

Time (EST) Temp. Windchill Dew Point Humidity Pressure Visibility Wind Dir Wind Speed Gust Speed Precip Events Conditions
12:15 AM -5.6 °F -25.8 °F -17.3 °F 57% 30.39 in 10.0 mi West 13.8 mph 24.2 mph N/A   Clear
12:35 AM -4.9 °F -25.6 °F -16.6 °F 57% 30.40 in 10.0 mi West 15.0 mph 20.7 mph N/A   Clear
12:55 AM -4.9 °F -25.6 °F -16.6 °F 57% 30.40 in 10.0 mi WSW 15.0 mph 21.9 mph N/A   Clear
1:15 AM -4.9 °F -26.3 °F -16.1 °F 59% 30.40 in 10.0 mi WSW 16.1 mph 20.7 mph N/A   Clear
1:35 AM -4.9 °F -24.1 °F -16.1 °F 59% 30.40 in 10.0 mi WSW 12.7 mph - N/A   Clear
1:55 AM -4.9 °F -24.1 °F -16.1 °F 59% 30.40 in 10.0 mi WSW 12.7 mph - N/A   Clear
2:15 AM -4.9 °F -24.1 °F -16.1 °F 59% 30.40 in 10.0 mi WSW 12.7 mph - N/A   Clear
2:35 AM -4.9 °F -24.1 °F -16.1 °F 59% 30.42 in 10.0 mi WSW 12.7 mph - N/A   Clear
2:55 AM -4.9 °F -24.9 °F -15.9 °F 59% 30.42 in 10.0 mi WSW 13.8 mph 18.4 mph N/A   Clear
3:15 AM -4.9 °F -24.1 °F -16.1 °F 59% 30.42 in 10.0 mi WSW 12.7 mph 18.4 mph N/A   Clear
3:35 AM -4.9 °F -24.1 °F -16.1 °F 59% 30.41 in 10.0 mi WSW 12.7 mph 19.6 mph N/A   Clear
3:55 AM -4.9 °F -24.1 °F -15.9 °F 59% 30.40 in 10.0 mi SW 12.7 mph - N/A   Clear
4:15 AM -4.9 °F -24.9 °F -15.2 °F 61% 30.40 in 10.0 mi WSW 13.8 mph 17.3 mph N/A   Clear
4:35 AM -4.9 °F -24.1 °F -14.8 °F 62% 30.40 in 10.0 mi WSW 12.7 mph - N/A   Clear
4:55 AM -4.9 °F -24.9 °F -14.8 °F 62% 30.41 in 10.0 mi WSW 13.8 mph 19.6 mph N/A   Clear
5:15 AM -4.9 °F -23.2 °F -15.0 °F 62% 30.41 in 10.0 mi WSW 11.5 mph - N/A   Clear
5:35 AM -4.9 °F -24.9 °F -15.3 °F 61% 30.41 in 10.0 mi WSW 13.8 mph - N/A   Clear
5:55 AM -4.9 °F -24.9 °F -15.2 °F 61% 30.40 in 10.0 mi WSW 13.8 mph - N/A   Clear
6:15 AM -4.9 °F -23.2 °F -15.0 °F 62% 30.41 in 10.0 mi SW 11.5 mph 16.1 mph N/A   Clear
6:35 AM -4.9 °F -23.2 °F -14.8 °F 62% 30.41 in 10.0 mi WSW 11.5 mph - N/A   Clear
6:55 AM -4.9 °F -23.2 °F -14.8 °F 62% 30.42 in 10.0 mi WSW 11.5 mph 16.1 mph N/A   Clear
7:15 AM -4.9 °F -22.3 °F -14.8 °F 62% 30.43 in 10.0 mi SW 10.4 mph 17.3 mph N/A   Clear
7:35 AM -4.9 °F -23.2 °F -14.3 °F 64% 30.43 in 10.0 mi SW 11.5 mph - N/A   Clear
7:55 AM -4.9 °F -24.9 °F -14.1 °F 65% 30.44 in 10.0 mi SW 13.8 mph - N/A   Clear
8:15 AM -4.9 °F -24.9 °F -14.3 °F 64% 30.45 in 10.0 mi SW 13.8 mph - N/A   Clear
8:35 AM -4.2 °F -25.4 °F -13.2 °F 65% 30.45 in 10.0 mi SW 16.1 mph 20.7 mph N/A   Clear
8:55 AM -2.4 °F -22.4 °F -11.7 °F 64% 30.46 in 10.0 mi SW 15.0 mph - N/A   Clear
9:15 AM -2.4 °F -24.3 °F -12.5 °F 62% 30.48 in 10.0 mi SW 18.4 mph 24.2 mph N/A   Clear
9:35 AM -2.4 °F -23.7 °F -12.6 °F 62% 30.48 in 10.0 mi SW 17.3 mph 23.0 mph N/A   Clear
9:55 AM -1.5 °F -21.3 °F -12.1 °F 61% 30.49 in 10.0 mi SW 15.0 mph 20.7 mph N/A   Clear
10:15 AM -0.6 °F -22.0 °F -11.6 °F 60% 30.49 in 10.0 mi WSW 18.4 mph - N/A   Clear
10:35 AM 0.1 °F -19.8 °F -11.4 °F 58% 30.48 in 10.0 mi SW 16.1 mph - N/A   Clear
10:55 AM 1.0 °F -18.7 °F -11.0 °F 57% 30.48 in 10.0 mi SW 16.1 mph 23.0 mph N/A   Clear
11:15 AM 1.9 °F -18.1 °F -10.3 °F 57% 30.47 in 10.0 mi SW 17.3 mph 21.9 mph N/A   Clear
11:35 AM 2.5 °F -16.8 °F -10.5 °F 55% 30.46 in 10.0 mi SW 16.1 mph 21.9 mph N/A   Clear
11:55 AM 4.1 °F -14.1 °F -10.1 °F 52% 30.47 in 10.0 mi SW 15.0 mph 23.0 mph N/A   Clear
12:15 PM 5.0 °F -13.0 °F -8.3 °F 54% 30.44 in 10.0 mi WSW 15.0 mph - N/A   Clear
12:35 PM 6.3 °F -10.0 °F -8.1 °F 52% 30.43 in 10.0 mi SW 12.7 mph 19.6 mph N/A   Clear
12:55 PM 7.7 °F -7.4 °F -8.1 °F 49% 30.43 in 10.0 mi WSW 11.5 mph 21.9 mph N/A   Clear
1:15 PM 7.7 °F -8.2 °F -8.3 °F 48% 30.43 in 10.0 mi SW 12.7 mph - N/A   Clear
1:35 PM 7.7 °F -8.9 °F -9.0 °F 47% 30.42 in 10.0 mi WSW 13.8 mph - N/A   Scattered Clouds
1:55 PM 7.7 °F -5.8 °F -8.9 °F 47% 30.42 in 10.0 mi WSW 9.2 mph 12.7 mph N/A   Mostly Cloudy
2:15 PM 7.7 °F -9.5 °F -9.0 °F 47% 30.42 in 10.0 mi WSW 15.0 mph - N/A   Scattered Clouds
2:35 PM 9.0 °F -5.1 °F -8.1 °F 46% 30.41 in 10.0 mi SW 10.4 mph - N/A   Clear
2:55 PM 10.2 °F -4.3 °F -7.2 °F 45% 30.41 in 10.0 mi SW 11.5 mph 18.4 mph N/A   Clear
3:15 PM 8.8 °F -6.8 °F -8.3 °F 46% 30.40 in 10.0 mi WSW 12.7 mph 18.4 mph N/A   Scattered Clouds
3:35 PM 10.2 °F -4.3 °F -6.5 °F 47% 30.41 in 10.0 mi SW 11.5 mph - N/A   Overcast
3:55 PM 10.2 °F -3.5 °F -6.3 °F 47% 30.42 in 10.0 mi WSW 10.4 mph - N/A   Mostly Cloudy
4:15 PM 10.2 °F -2.7 °F -6.7 °F 47% 30.42 in 10.0 mi WSW 9.2 mph 12.7 mph N/A   Scattered Clouds
4:35 PM 10.2 °F -3.5 °F -6.5 °F 47% 30.40 in 10.0 mi WSW 10.4 mph - N/A   Mostly Cloudy
4:55 PM 10.2 °F -5.0 °F -5.8 °F 49% 30.40 in 10.0 mi SW 12.7 mph - N/A   Mostly Cloudy
5:15 PM 10.2 °F -4.3 °F -5.1 °F 50% 30.39 in 10.0 mi SSW 11.5 mph - N/A   Mostly Cloudy
5:35 PM 11.5 °F -1.9 °F -4.2 °F 50% 30.39 in 10.0 mi SW 10.4 mph - N/A   Overcast
5:55 PM 12.7 °F 0.4 °F -2.4 °F 51% 30.39 in 10.0 mi SW 9.2 mph - N/A   Overcast
6:15 PM 12.7 °F 1.4 °F -1.7 °F 53% 30.39 in 10.0 mi SSW 8.1 mph - N/A   Overcast
6:35 PM 12.7 °F -0.4 °F -1.8 °F 52% 30.40 in 10.0 mi SW 10.4 mph - N/A   Overcast
6:55 PM 12.7 °F -1.8 °F -2.6 °F 51% 30.40 in 10.0 mi SSW 12.7 mph - N/A   Overcast
7:15 PM 12.7 °F -0.4 °F -1.8 °F 52% 30.41 in 10.0 mi SSW 10.4 mph - N/A   Overcast
7:35 PM 12.7 °F -0.4 °F -1.3 °F 54% 30.41 in 10.0 mi SSW 10.4 mph - N/A   Overcast
7:55 PM 12.7 °F -1.1 °F -1.5 °F 53% 30.41 in 10.0 mi SSW 11.5 mph - N/A   Overcast
8:15 PM 12.7 °F -0.4 °F -1.7 °F 53% 30.41 in 10.0 mi SSW 10.4 mph - N/A   Overcast
8:35 PM 12.7 °F 1.4 °F -1.5 °F 53% 30.41 in 10.0 mi SSW 8.1 mph - N/A   Overcast
8:55 PM 12.7 °F -0.4 °F -1.8 °F 52% 30.41 in 10.0 mi SSW 10.4 mph - N/A   Overcast
9:15 PM 12.7 °F -0.4 °F -1.7 °F 53% 30.42 in 10.0 mi SSW 10.4 mph - N/A   Overcast
9:35 PM 12.7 °F 0.4 °F -1.3 °F 54% 30.42 in 10.0 mi South 9.2 mph - N/A   Overcast
9:55 PM 12.7 °F 0.4 °F -1.1 °F 54% 30.43 in 10.0 mi SSW 9.2 mph - N/A   Overcast
10:15 PM 12.7 °F -0.4 °F -0.8 °F 55% 30.43 in 10.0 mi SSW 10.4 mph - N/A   Overcast
10:35 PM 12.9 °F -0.2 °F -1.3 °F 53% 30.42 in 10.0 mi South 10.4 mph - N/A   Overcast
10:55 PM 12.7 °F 1.4 °F -0.4 °F 56% 30.41 in 10.0 mi South 8.1 mph - N/A   Overcast
11:15 PM 12.7 °F -1.1 °F -0.4 °F 56% 30.42 in 10.0 mi South 11.5 mph - N/A   Overcast
11:35 PM 12.7 °F -0.4 °F 0.7 °F 59% 30.42 in 10.0 mi SSW 10.4 mph - N/A   Overcast
11:55 PM 12.7 °F -0.4 °F 0.5 °F 58% 30.41 in 10.0 mi SSW 10.4 mph - N/A   Overcast